Weather History for Huntsville, AL

Change the Weather History Date:

Saturday, October 23, 2010

  Actual Average Record
Temperature  
Mean Temperature 65 °F 60 °F  
Max Temperature 81 °F 72 °F 89 °F (1927)
Min Temperature 48 °F 49 °F 27 °F (1937)
Degree Days  
Heating Degree Days 0 6  
Month to date heating degree days 72 83  
Since 1 July heating degree days 81 96  
Cooling Degree Days 0 1  
Month to date cooling degree days 30 62  
Year to date cooling degree days 2453 1932  
Growing Degree Days 14 (Base 50)    
Moisture  
Dew Point 41 °F    
Average Humidity 46    
Maximum Humidity 71    
Minimum Humidity 20    
Precipitation  
Precipitation 0.00 in 0.12 in 1.21 in (1984)
Month to date precipitation 0.54 2.59  
Year to date precipitation 32.17 42.63  
Snow  
Snow 0.00 in - - ()
Month to date snowfall 0.0  
Since 1 July snowfall 0.0  
Since 1 September snowfall 0.0  
Snow Depth 0.00 in    
Sea Level Pressure  
Sea Level Pressure 30.16 in    
Wind  
Wind Speed 7 mph (SE)    
Max Wind Speed 16 mph    
Max Gust Speed 16 mph    
Visibility 10 miles    
Events      
T = Trace of Precipitation, MM = Missing Value Source: NWS Daily Summary

Daily Weather History Graph

Daily Weather History Graph

Search for Another Location

Airport:

Trip Planner

Search our weather history database for the weather conditions in past years. The results will help you decide how hot, cold, wet, or windy it might be!

Date:

Astronomy

Oct. 23, 2010 Rise Set
Actual Time 6:59 AM CDT 6:02 PM CDT
Civil Twilight 6:33 AM CDT 6:28 PM CDT
Nautical Twilight 6:04 AM CDT 6:57 PM CDT
Astronomical Twilight 5:35 AM CDT 7:27 PM CDT
Moon 6:11 PM CDT (10/23) 7:34 AM CDT (10/23)
Length of Visible Light 11h 54m
Length of Day
11h 03m
Full, 100% of the Moon is Illuminated
Oct 23
Full
Oct 30
Last Quarter
Nov 5
New
Nov 13
First Quarter
Nov 21
Full

Hourly Weather History & Observations

Time (CDT) Temp. Dew Point Humidity Pressure Visibility Wind Dir Wind Speed Gust Speed Precip Events Conditions
12:53 AM 51.1 °F 41.0 °F 68% 30.17 in 10.0 mi East 4.6 mph - N/A   Partly Cloudy
1:53 AM 52.0 °F 41.0 °F 66% 30.18 in 10.0 mi Calm Calm - N/A   Partly Cloudy
2:53 AM 51.1 °F 39.9 °F 66% 30.18 in 10.0 mi East 3.5 mph - N/A   Clear
3:53 AM 50.0 °F 39.9 °F 68% 30.18 in 10.0 mi East 3.5 mph - N/A   Clear
4:53 AM 50.0 °F 39.9 °F 68% 30.18 in 10.0 mi East 4.6 mph - N/A   Clear
5:53 AM 48.9 °F 39.9 °F 71% 30.19 in 10.0 mi ENE 3.5 mph - N/A   Partly Cloudy
6:53 AM 48.9 °F 37.9 °F 66% 30.22 in 10.0 mi East 3.5 mph - N/A   Partly Cloudy
7:53 AM 53.1 °F 41.0 °F 64% 30.23 in 10.0 mi Calm Calm - N/A   Partly Cloudy
8:53 AM 59.0 °F 39.0 °F 48% 30.24 in 10.0 mi SE 3.5 mph - N/A   Partly Cloudy
9:53 AM 66.9 °F 41.0 °F 39% 30.23 in 10.0 mi SSE 8.1 mph - N/A   Partly Cloudy
10:53 AM 73.9 °F 39.0 °F 28% 30.22 in 10.0 mi SE 12.7 mph - N/A   Mostly Cloudy
11:53 AM 75.9 °F 39.0 °F 26% 30.21 in 10.0 mi SE 11.5 mph - N/A   Mostly Cloudy
12:53 PM 78.1 °F 35.1 °F 21% 30.18 in 10.0 mi South 11.5 mph 16.1 mph N/A   Mostly Cloudy
1:53 PM 80.1 °F 35.1 °F 20% 30.15 in 10.0 mi South 9.2 mph - N/A   Mostly Cloudy
2:53 PM 80.1 °F 35.1 °F 20% 30.12 in 10.0 mi South 8.1 mph - N/A   Mostly Cloudy
3:53 PM 80.1 °F 39.0 °F 23% 30.11 in 10.0 mi SSE 11.5 mph - N/A   Overcast
4:53 PM 78.1 °F 43.0 °F 29% 30.11 in 10.0 mi SSE 6.9 mph - N/A   Mostly Cloudy
5:53 PM 72.0 °F 46.0 °F 40% 30.11 in 10.0 mi ESE 5.8 mph - N/A   Mostly Cloudy
6:53 PM 68.0 °F 46.0 °F 45% 30.11 in 10.0 mi ESE 5.8 mph - N/A   Mostly Cloudy
7:53 PM 64.9 °F 46.9 °F 52% 30.12 in 10.0 mi ESE 8.1 mph - N/A   Mostly Cloudy
8:53 PM 64.9 °F 46.0 °F 50% 30.11 in 10.0 mi SE 6.9 mph - N/A   Mostly Cloudy
9:53 PM 64.0 °F 46.9 °F 54% 30.12 in 10.0 mi ESE 8.1 mph - N/A   Mostly Cloudy
10:53 PM 64.9 °F 46.0 °F 50% 30.13 in 10.0 mi SE 8.1 mph - N/A   Clear
11:53 PM 64.9 °F 45.0 °F 48% 30.14 in 10.0 mi SE 8.1 mph - N/A   Clear